Regional Weather Roundup
Issued by NWS Nashville, TN

Home | Current Version | Previous Version | Text Only | Print | Product List | Glossary On
Versions: 1 2 3 4 5 6 7 8 9 10 11 12 13 14 15 16 17 18 19 20 21 22 23 24 25 26 27 28 29 30 31 32 33 34 35 36 37 38 39 40 41 42 43 44 45 46 47 48 49 50
000
ASUS44 KOHX 032210
RWROHX
MIDDLE TENNESSEE HOURLY WEATHER ROUNDUP
NATIONAL WEATHER SERVICE NASHVILLE TN
400 PM CST SAT DEC 03 2016

NOTE: "FAIR" INDICATES FEW OR NO CLOUDS BELOW 12,000 FEET WITH
NO SIGNIFICANT WEATHER AND/OR OBSTRUCTIONS TO VISIBILITY.

* THESE REPORTS ARE NOT UNDER NWS QUALITY CONTROL AND MAY NOT
  REPORT WEATHER SUCH AS PRECIPITATION AND FOG.


TNZ005>011-023>034-057-059-062>066-078-080-032300
...NORTHERN MIDDLE TENNESSEE...

CITY           SKY/WX    TMP DP  RH WIND       PRES   REMARKS
CLARKSVILLE    CLOUDY    42  31  64 E8        30.28F
CROSSVILLE     CLOUDY    40  30  67 NE6       30.24F
LEBANON        CLOUDY    42  32  68 NE3       30.26F
NASHVILLE      CLOUDY    44  31  60 NE5       30.28F
PORTLAND       CLEAR     41  32  70 NE5       30.27F
SMYRNA         CLOUDY    44  32  62 NE5       30.29F
SPRINGFIELD    CLEAR     41  32  70 VRB3      30.27F
WEST NASHVILLE CLEAR     43  30  61 NE3       30.28S
$$
TNZ056-058-060-061-075>077-079-093>097-032300
...SOUTHERN MIDDLE TENNESSEE...

CITY           SKY/WX    TMP DP  RH WIND       PRES   REMARKS
COLUMBIA       CLOUDY    43  43 100 E3        30.24F
FAYETTEVILLE   MOCLDY    45  36  70 NE3       30.24F
MCMINNVILLE    CLEAR     43  34  70 N5        30.25F
SHELBYVILLE    CLOUDY    43  37  81 N5        30.27S
TULLAHOMA      MOCLDY    43  32  65 NE3       30.25S
WINCHESTER     MOCLDY    43  36  75 CALM      30.25S
$$


...KEY TO REMARKS...
VSB - VISIBILITY IN MILES
WCI - WIND CHILL INDEX
HX  - HEAT INDEX




USA.gov is the U.S. government's official web portal to all federal, state and local government web resources and services.